Tracking 34784 objects as of 21-Jul-2026
HD Live streaming from Space Station
objects crossing your sky now

METEOR 2-8 DEB

Track METEOR 2-8 DEB now!
10-day predictions


NORAD ID: 36343
Int'l Code: 1982-025AD
Perigee: 801.1 km
Apogee: 822.2 km
Inclination: 82.5 °
Period: 101.0 minutes
Semi major axis: 7182 km
RCS: 0.0095 m2 (small)
Launch date: March 25, 1982
Source: Commonwealth of Independent States (former USSR) (CIS)
Launch site: PLESETSK MISSILE AND SPACE COMPLEX (PKMTR)

Note: This is SATELLITE DEBRIS
Your satellite tracking list
Your tracking list is empty




NASA's NSSDC Master Catalog

Two Line Element Set (TLE):
1 36343U 82025AD  26200.20587010  .00001701  00000-0  70331-3 0  9995
2 36343  82.5091 171.8515 0014639 100.5614 259.7219 14.26187337661633
Source of the keplerian elements: AFSPC